Temperature
21 21 21 21 24 24 23 23 23 23 22 21 21 22 22 21 21 20 17 17 16 16 16 17 17 17 17 17 17 17 17 17 17 17 17 17 17 17 17 17 17 17 17 17 17 17 18 18 18
20 21 21 23 25 24 23 23 23 22 22 21 21 21 21 20 19 18 17 16 16 16 16 16 17 17 17 17 17 17 17 17 17 17 17 17 17 17 17 17 17 17 17 17 17 17 17 17 17
21 21 22 24 24 24 23 23 23 22 21 21 21 21 20 19 18 17 17 16 16 16 16 16 17 16 16 16 16 17 17 17 17 17 17 17 17 17 17 17 17 17 17 17 17 17 17 17 17
21 22 23 25 23 23 23 23 23 22 21 21 21 21 19 18 17 17 17 17 17 16 16 16 17 16 16 16 16 16 16 16 17 17 17 17 17 17 17 17 17 17 17 17 17 17 17 17 17
21 23 24 24 23 23 23 23 22 23 22 21 21 21 19 17 17 17 17 17 17 16 16 16 17 16 16 16 16 16 16 16 16 16 16 17 16 16 16 17 17 17 17 17 17 17 17 17 17
23 24 24 23 23 23 23 22 22 22 22 21 21 21 19 17 17 17 17 17 17 16 16 16 16 16 16 16 16 16 16 16 16 16 16 16 16 16 16 16 16 16 16 16 16 16 16 16 16
23 24 24 23 22 22 23 22 22 22 22 21 21 21 19 17 17 17 16 16 16 16 16 16 16 16 16 16 16 16 16 16 16 16 16 16 16 16 16 16 16 16 16 16 16 16 16 16 16
22 24 23 23 22 22 22 22 21 22 21 20 20 21 19 17 17 17 16 16 16 16 16 16 16 16 16 16 16 16 16 16 16 16 16 16 16 16 16 16 16 16 16 16 16 16 16 16 16
22 24 23 23 23 22 22 22 21 20 20 20 19 19 18 17 17 17 17 16 16 16 16 16 16 16 16 16 16 16 16 16 16 16 16 16 15 15 15 16 16 16 16 16 16 16 16 16 16
23 23 23 23 23 23 22 22 21 21 21 20 19 18 17 17 17 17 17 17 17 17 16 16 16 16 16 16 16 15 15 15 15 15 15 15 15 15 15 16 16 16 16 16 16 16 16 16 15
23 23 23 22 22 22 22 22 21 22 22 21 20 18 17 17 17 17 17 17 17 17 16 16 16 16 16 16 16 15 15 15 15 15 15 15 15 15 15 15 15 15 15 15 15 15 15 15 15
23 22 22 22 21 22 22 21 21 21 21 20 19 18 18 18 18 17 17 17 17 17 16 16 16 16 16 16 15 15 15 15 15 15 15 15 15 15 15 15 15 15 15 15 15 15 15 15 15
23 22 22 21 21 21 21 21 21 20 19 19 19 18 18 18 18 17 17 17 17 17 16 16 16 16 16 16 15 15 15 15 15 15 15 15 15 15 15 15 15 15 15 15 15 15 15 15 15
23 22 22 22 22 21 22 21 21 20 19 19 19 18 18 18 18 17 17 17 17 17 17 16 16 16 16 16 15 15 15 15 15 15 15 15 15 15 15 15 15 15 15 15 15 15 15 15 15
22 23 23 22 22 22 22 22 22 20 19 19 19 19 18 18 17 18 17 17 17 17 17 16 16 16 16 16 15 15 15 15 15 15 15 15 15 15 15 15 15 15 15 15 15 15 15 15 14
23 23 23 23 22 22 22 22 21 20 20 20 19 19 18 18 18 18 17 17 17 17 17 16 16 16 16 15 15 15 15 15 15 15 15 15 15 15 15 15 15 15 15 15 15 14 14 14 14
23 23 23 23 22 23 22 22 22 20 20 20 20 19 19 18 18 18 17 17 17 17 17 16 16 16 16 15 15 15 15 15 15 15 15 15 15 15 15 15 15 15 14 14 14 14 14 14 14
23 24 23 23 23 22 22 22 22 20 20 20 20 20 19 19 18 18 17 17 17 17 17 16 16 16 16 15 15 15 15 15 15 15 15 14 15 14 14 15 14 14 14 14 14 14 14 14 14
24 24 23 23 23 22 22 22 22 21 20 20 20 20 19 19 18 18 17 17 17 17 17 16 16 16 16 15 15 15 15 15 15 15 15 14 14 14 14 14 14 14 14 14 14 14 14 14 14
23 23 23 23 22 23 23 22 22 22 21 20 20 20 20 19 18 17 17 17 17 17 17 16 16 16 16 15 15 15 15 15 15 15 15 15 14 14 14 14 14 14 14 14 14 14 14 14 14
23 23 23 23 23 23 23 23 23 22 21 20 20 20 20 19 19 18 17 17 17 17 16 16 16 16 16 15 15 15 15 15 15 15 15 14 14 14 14 14 14 14 14 14 14 14 14 14 14
23 23 23 23 23 23 23 23 23 23 22 21 20 19 19 19 18 18 17 17 17 17 16 16 16 16 16 15 15 15 15 15 15 15 15 15 14 14 14 14 14 14 14 14 14 14 14 14 14
23 23 23 23 23 23 23 23 23 23 22 22 21 20 19 19 18 18 17 17 17 17 16 16 16 16 16 16 15 15 15 15 15 15 15 15 14 14 14 14 14 14 14 14 14 14 14 14 14
22 23 23 23 23 23 23 23 23 23 22 22 21 20 19 19 18 18 17 17 17 16 16 16 16 16 16 16 15 15 15 15 15 15 15 15 14 14 14 14 14 14 14 14 14 14 14 14 14
23 23 23 23 23 23 23 22 23 23 22 22 21 20 19 19 18 18 17 17 17 17 16 16 16 16 16 16 15 15 15 15 15 15 15 15 15 15 14 15 14 14 14 14 14 14 14 14 14
23 24 23 22 23 23 22 22 23 22 21 20 20 20 19 18 18 18 17 17 17 17 17 17 16 16 16 16 15 15 15 15 15 15 15 15 15 15 15 14 14 14 14 14 14 14 14 14 14
23 23 24 24 23 23 23 23 22 22 21 20 20 19 19 18 18 18 17 17 17 17 17 17 16 16 16 16 15 15 15 15 15 15 15 15 14 15 14 14 14 14 14 14 14 14 14 14 14
23 23 23 23 22 22 22 22 23 22 21 21 20 19 19 18 18 17 17 17 17 17 17 17 16 16 16 16 16 15 15 15 15 15 15 15 14 14 14 14 14 14 14 14 14 14 14 14 14
22 22 23 23 23 22 22 22 23 22 22 21 20 19 19 18 18 17 17 17 17 17 17 17 16 16 16 16 16 15 15 15 15 15 15 15 15 14 14 14 14 14 14 14 14 14 14 14 14
22 23 23 22 22 22 22 22 22 22 21 21 20 19 19 18 18 17 17 17 17 17 17 16 16 16 16 16 16 15 15 15 15 15 15 15 15 14 14 14 14 14 14 14 14 14 14 14 14
Wind_Speed
1 1 2 2 2 4 7 5 5 5 4 5 6 5 6 7 5 5 4 4 5 5 6 6 7 7 7 8 8 9 9 9 9 9 9 9 9 9 9 10 10 11 11 11 11 11 11 11 11
2 1 1 1 1 5 7 5 6 6 5 4 5 5 6 7 6 5 4 5 5 6 6 8 8 7 7 8 8 9 9 9 9 9 9 9 9 9 9 10 10 11 11 11 11 11 11 11 11
0 1 1 1 4 5 6 5 6 7 5 3 4 5 5 5 5 4 5 5 5 6 7 9 8 8 8 9 9 8 8 9 9 8 8 9 9 9 9 10 10 11 11 11 11 10 11 11 11
1 1 1 4 10 8 7 6 6 6 5 4 4 6 5 5 4 5 6 5 6 6 7 9 8 8 8 8 8 8 8 8 8 8 8 8 9 9 9 10 10 10 11 11 11 10 11 10 10
0 1 4 7 9 7 6 5 4 4 4 5 5 6 6 5 6 7 6 6 6 6 7 8 9 8 8 7 7 7 7 7 8 8 8 9 9 9 10 10 10 10 10 11 11 10 10 10 10
1 1 5 7 8 7 6 4 4 6 6 5 5 6 6 5 6 6 6 6 6 6 6 7 8 8 7 7 7 7 7 7 8 8 9 10 10 10 10 11 11 11 11 10 10 10 10 10 10
2 3 6 8 7 6 5 4 4 5 6 5 3 5 6 5 5 5 5 5 5 5 5 6 6 6 7 7 8 8 8 8 8 8 9 10 10 11 11 11 11 11 11 11 10 9 10 10 10
2 3 6 6 6 6 5 4 4 4 5 4 2 3 5 6 5 5 5 5 5 5 5 5 5 6 6 7 8 8 8 8 8 8 8 8 9 10 10 10 10 10 10 10 10 11 11 11 10
0 3 5 4 4 6 5 5 4 4 5 4 4 5 6 8 6 5 5 4 4 4 4 4 5 5 6 6 7 6 7 7 6 8 7 5 7 8 9 11 10 10 9 10 10 11 10 10 11
1 4 5 4 4 6 6 5 4 4 5 5 6 6 8 7 6 5 4 4 4 4 4 4 4 5 5 5 5 5 6 6 6 7 6 6 7 7 8 9 9 9 9 10 10 9 7 5 7
4 6 6 5 5 5 6 5 3 3 4 4 5 7 8 7 5 4 3 3 4 4 4 4 4 4 5 4 4 5 5 5 6 6 7 6 6 6 6 5 6 6 6 7 7 5 6 7 6
6 6 5 5 5 4 4 4 3 3 3 3 5 7 7 6 5 4 3 2 3 4 4 4 4 4 4 5 4 4 4 4 5 5 6 5 4 4 5 4 5 5 5 5 5 5 7 7 7
6 5 5 5 5 4 4 4 3 3 2 4 6 7 6 5 4 3 3 2 3 3 3 4 3 4 5 5 3 4 4 4 5 4 4 5 3 4 4 5 5 5 5 5 5 6 7 7 8
5 6 5 4 4 3 4 3 2 3 4 6 6 6 6 5 4 4 3 3 2 3 3 3 4 4 4 4 4 4 4 4 4 4 4 4 4 4 4 5 5 5 5 5 5 7 6 6 7
5 5 4 2 2 2 3 3 1 3 5 6 5 5 5 4 4 4 3 2 2 2 3 3 3 4 4 5 5 4 4 4 4 3 4 4 4 4 4 4 5 5 5 5 6 7 6 6 6
4 4 3 3 2 2 3 2 3 4 6 5 4 4 4 4 4 4 3 2 2 2 3 4 3 3 4 4 4 4 4 4 4 4 4 4 4 4 4 4 4 5 5 5 5 5 5 6 6
4 4 4 3 2 2 2 1 3 4 5 5 5 4 4 4 4 4 4 3 3 3 3 4 4 3 3 3 3 3 4 4 3 3 3 3 4 4 5 4 4 5 5 4 5 5 5 6 5
4 4 3 3 3 3 2 1 2 4 5 4 4 4 4 4 4 4 4 4 3 3 3 4 4 3 4 3 3 3 3 3 3 3 3 4 3 4 5 4 5 5 4 4 4 6 5 5 4
3 3 3 2 3 2 2 1 2 4 5 5 5 4 4 4 4 5 5 5 4 4 4 4 4 4 3 3 2 2 2 2 2 2 3 3 3 4 4 3 4 4 4 4 5 5 6 5 4
5 5 3 2 3 2 1 1 1 3 5 5 5 5 5 5 5 5 5 5 5 5 4 4 4 3 3 2 2 2 2 1 2 2 3 3 3 4 3 4 4 4 4 4 4 3 3 3 1
5 5 3 2 3 4 2 1 2 3 3 4 4 5 5 6 6 6 6 6 5 5 5 3 3 3 3 3 2 3 3 2 2 2 2 2 3 3 4 4 4 4 3 3 3 2 2 2 2
5 3 5 4 4 2 3 1 1 3 3 3 4 5 6 6 7 7 6 6 6 5 4 4 4 3 3 3 3 3 3 2 2 2 2 3 3 3 3 3 3 3 2 2 2 2 1 1 1
2 2 4 5 5 5 4 4 1 2 2 3 4 5 6 7 8 8 7 6 6 5 5 4 4 3 3 3 3 3 3 2 2 2 3 3 3 3 3 3 3 3 2 2 1 1 1 1 1
4 4 4 4 5 5 3 4 1 1 2 2 2 4 6 7 8 8 7 6 6 5 5 4 4 4 3 3 3 3 3 3 3 3 3 2 2 2 3 2 3 2 2 1 1 1 1 0 0
7 6 4 5 5 2 2 3 1 1 1 2 2 3 5 6 7 8 7 7 6 6 5 5 5 4 4 4 4 4 4 4 4 3 3 2 2 2 2 2 2 2 2 2 1 1 1 1 1
7 7 4 3 3 1 3 3 1 2 1 0 1 2 4 6 7 7 7 7 7 6 6 5 5 5 4 4 4 4 4 3 3 2 2 2 2 2 2 2 2 2 2 2 2 1 1 1 1
6 6 4 4 3 4 3 2 2 1 1 1 2 3 4 5 6 7 7 7 7 7 6 6 5 5 5 5 4 4 4 4 3 3 2 2 2 2 3 3 2 2 2 1 2 1 1 1 1
4 4 5 5 4 4 3 4 2 2 1 1 2 2 3 5 6 6 6 6 6 6 6 6 5 5 5 5 4 3 4 4 3 3 3 3 3 3 3 3 3 2 2 2 1 1 1 2 2
6 7 6 5 5 4 4 2 1 1 1 2 2 3 3 5 6 6 6 6 6 6 6 6 5 5 5 5 4 4 4 4 4 4 3 3 3 3 3 2 2 2 2 2 2 2 2 2 2
6 7 8 7 6 6 5 2 3 1 1 1 2 3 4 4 5 5 6 6 6 6 6 6 6 5 5 5 5 4 4 5 5 4 4 4 4 3 3 3 2 2 2 2 3 3 2 2 2
Wind_Direction
277 323 270 250 172 94 77 72 70 82 72 63 63 67 70 54 38 67 77 72 61 60 56 63 50 51 61 63 69 68 70 70 71 73 74 72 72 72 71 75 77 80 81 80 81 80 84 85 84
334 310 258 266 120 102 82 75 77 70 88 101 78 72 75 68 58 80 89 76 69 61 55 53 54 55 64 66 68 68 70 70 70 72 73 74 76 76 74 77 76 81 83 82 81 79 81 82 83
319 267 336 68 77 79 94 81 88 91 88 86 85 64 59 69 70 78 80 85 76 67 64 64 57 59 63 64 66 68 69 69 68 70 73 77 80 77 73 76 78 81 83 85 85 83 81 80 79
251 182 112 94 90 74 83 95 106 113 93 72 95 89 81 62 70 84 92 86 81 73 69 70 60 61 63 61 62 67 69 68 68 72 75 79 83 81 78 77 80 80 82 81 84 87 85 81 79
302 105 113 104 92 86 82 86 102 95 93 85 92 99 94 81 84 89 93 84 79 76 72 70 61 57 60 60 62 67 68 68 68 69 73 78 81 79 79 79 79 79 81 82 81 85 86 83 79
118 121 120 110 102 97 91 91 97 90 95 98 96 101 91 97 96 92 91 87 81 77 73 74 77 64 61 59 61 64 66 69 70 70 70 75 78 80 79 79 80 78 78 79 81 84 86 84 81
92 101 107 114 114 105 90 87 86 92 95 85 89 104 111 113 101 105 99 91 84 80 74 67 68 80 85 72 62 62 64 66 68 71 75 79 81 81 81 82 81 81 77 76 79 86 87 86 84
56 118 118 115 119 102 98 99 80 73 87 85 73 103 120 127 124 119 106 96 88 80 71 64 64 64 71 81 74 68 67 66 71 74 76 86 97 95 90 89 80 80 78 79 82 84 83 81 82
11 126 117 115 119 111 117 114 96 90 101 95 78 73 102 124 132 126 116 101 90 76 68 64 62 66 68 70 80 87 87 77 86 87 88 98 92 90 93 78 78 79 79 79 83 85 86 90 87
88 110 101 100 108 115 118 106 110 120 109 108 107 103 119 133 138 131 119 101 91 83 68 65 65 68 73 71 75 74 80 77 69 71 78 81 81 79 83 95 88 84 84 85 82 89 98 100 96
90 100 110 113 112 119 121 107 102 110 95 100 128 134 137 138 135 130 113 95 85 78 71 65 70 74 76 79 73 72 76 74 70 65 73 76 79 86 84 91 100 95 94 88 91 91 83 84 83
104 99 112 116 122 123 119 118 109 77 69 79 125 139 145 146 141 139 125 99 89 75 72 75 69 79 79 76 74 76 79 74 72 66 66 69 73 77 77 79 77 80 83 81 79 78 84 85 83
109 109 106 117 121 120 121 117 113 109 106 115 130 142 149 151 148 142 131 118 104 89 85 80 72 72 80 75 74 82 80 73 76 64 63 72 75 78 79 81 78 76 84 88 81 83 81 77 73
113 117 116 122 130 141 133 122 126 128 143 138 142 149 156 156 156 151 148 134 119 100 89 94 88 81 79 80 82 79 77 80 67 59 59 64 71 78 83 81 78 78 81 83 86 86 85 78 77
136 132 129 141 156 158 166 116 106 136 155 151 153 152 160 167 169 172 162 147 127 109 106 106 99 93 83 77 75 77 72 75 75 62 60 69 69 84 88 82 83 88 94 94 88 86 86 87 88
165 170 151 134 175 177 219 98 107 150 168 165 162 158 168 174 183 176 171 160 134 132 126 119 121 110 93 86 84 78 76 72 72 65 56 62 70 80 86 85 87 90 96 94 90 88 92 92 88
185 173 148 141 166 174 194 103 123 157 175 173 171 171 178 175 185 179 179 175 157 157 146 135 129 120 110 106 104 88 81 69 66 62 51 50 62 86 97 91 91 97 95 93 93 89 91 94 93
169 172 160 154 146 171 183 184 142 167 185 186 182 185 184 179 178 178 175 166 157 158 156 142 134 132 123 123 119 100 78 70 62 57 45 52 70 87 102 105 99 98 96 96 100 99 92 91 97
181 183 169 147 151 181 202 238 196 182 196 206 203 198 196 182 167 166 168 163 161 162 165 155 150 139 133 135 135 117 87 75 71 62 57 65 84 92 100 107 102 103 104 104 105 105 106 103 107
202 202 192 151 152 197 198 264 208 193 210 218 217 212 203 188 172 164 170 169 173 168 168 164 155 147 144 136 122 112 104 88 77 73 78 78 92 99 107 114 119 120 114 116 109 111 114 115 130
212 224 210 188 167 193 239 220 170 169 197 214 226 225 209 197 190 177 176 175 175 175 175 175 169 162 157 146 131 132 129 129 127 108 87 80 90 101 108 122 129 128 126 122 121 134 146 140 133
223 222 220 212 226 229 243 272 151 169 176 203 218 219 212 200 195 187 181 181 180 180 180 181 167 163 159 162 162 165 164 145 126 116 108 114 107 107 114 130 142 142 139 138 135 142 175 190 158
219 193 209 225 243 251 236 254 184 159 218 225 221 218 213 202 197 194 190 186 182 177 179 175 167 164 164 169 162 178 160 137 131 130 128 123 113 111 118 127 139 141 149 156 145 168 210 225 251
166 169 178 215 236 240 237 241 253 192 270 261 222 212 208 200 192 190 185 181 176 172 173 174 173 168 167 177 180 180 164 162 158 156 146 141 130 122 124 132 140 138 140 147 153 160 175 214 308
204 219 216 210 212 215 162 230 258 40 296 276 247 195 191 188 183 182 180 180 176 174 175 177 174 174 175 180 185 187 182 184 183 177 165 163 148 136 135 147 148 138 132 135 146 153 157 145 142
210 229 244 248 238 196 184 223 111 66 37 318 196 168 167 173 177 178 179 179 179 178 176 178 177 180 182 187 187 187 184 189 188 187 186 180 158 140 135 144 142 135 143 147 145 159 147 140 134
207 220 253 262 254 249 205 190 182 145 110 110 115 142 167 174 177 178 178 181 182 182 180 182 182 184 187 191 191 190 188 189 188 190 191 191 174 155 154 152 148 141 143 156 165 160 144 135 135
242 206 213 233 243 240 220 222 211 160 160 159 157 167 175 177 176 176 176 180 183 184 184 186 191 191 188 194 195 194 198 193 194 191 184 183 174 168 178 172 168 158 151 159 160 165 152 162 129
194 206 219 229 247 256 245 199 95 173 187 195 190 192 184 180 181 178 176 176 174 174 179 184 190 192 191 196 193 191 192 191 189 187 182 185 179 175 182 186 181 170 171 171 165 174 164 166 145
235 230 225 234 230 241 261 250 105 155 174 176 186 180 177 178 178 176 172 167 168 173 179 183 186 189 191 193 193 192 188 189 190 188 188 188 182 180 181 175 173 166 178 181 168 164 167 161 149
Height
1514 1513 1513 1514 1512 1513 1520 1522 1520 1522 1523 1527 1527 1526 1526 1528 1530 1538 1538 1536 1536 1535 1535 1534 1532 1532 1531 1530 1530 1530 1529 1529 1529 1528 1528 1528 1528 1527 1527 1527 1527 1526 1526 1526 1527 1527 1527 1528 1528
1514 1514 1515 1514 1511 1519 1525 1522 1522 1524 1527 1528 1529 1528 1529 1532 1535 1537 1537 1537 1537 1536 1536 1535 1533 1533 1532 1532 1531 1531 1531 1530 1530 1530 1529 1529 1529 1529 1529 1528 1528 1528 1528 1528 1528 1529 1529 1529 1530
1514 1514 1517 1513 1515 1520 1525 1523 1524 1527 1529 1529 1530 1531 1532 1535 1537 1538 1538 1538 1538 1537 1537 1536 1534 1534 1533 1532 1532 1532 1532 1532 1532 1531 1531 1531 1530 1530 1530 1530 1530 1530 1530 1530 1530 1530 1531 1531 1531
1516 1517 1517 1515 1521 1523 1523 1524 1526 1527 1529 1530 1530 1532 1535 1538 1539 1539 1539 1539 1539 1539 1538 1537 1536 1535 1535 1534 1534 1533 1533 1533 1533 1533 1532 1532 1532 1532 1531 1531 1531 1531 1531 1531 1531 1532 1532 1532 1532
1516 1517 1516 1520 1523 1525 1525 1527 1527 1527 1529 1531 1531 1533 1537 1539 1539 1540 1540 1540 1540 1540 1540 1539 1537 1537 1536 1536 1535 1535 1535 1534 1534 1534 1534 1534 1533 1533 1533 1533 1533 1533 1533 1533 1533 1533 1534 1534 1534
1518 1516 1518 1524 1526 1526 1527 1529 1529 1529 1531 1533 1533 1534 1539 1541 1540 1541 1541 1541 1542 1541 1541 1540 1539 1538 1538 1537 1536 1536 1536 1536 1536 1535 1535 1535 1535 1534 1534 1534 1534 1534 1534 1534 1534 1535 1535 1535 1535
1519 1516 1520 1524 1527 1527 1529 1530 1530 1530 1532 1534 1535 1536 1539 1541 1542 1542 1542 1543 1543 1542 1542 1542 1541 1540 1539 1538 1538 1537 1537 1537 1537 1537 1536 1536 1536 1536 1536 1536 1536 1536 1536 1536 1536 1536 1536 1537 1537
1520 1519 1522 1524 1527 1529 1531 1531 1532 1532 1534 1536 1537 1536 1540 1542 1542 1543 1543 1544 1544 1544 1543 1543 1542 1542 1542 1541 1539 1539 1539 1538 1538 1538 1538 1538 1537 1537 1537 1537 1537 1537 1537 1537 1537 1537 1538 1538 1538
1521 1521 1524 1526 1527 1529 1531 1532 1534 1535 1536 1537 1538 1539 1541 1542 1543 1544 1544 1544 1544 1544 1544 1544 1543 1543 1543 1542 1541 1541 1540 1540 1540 1540 1539 1539 1540 1540 1540 1539 1538 1538 1539 1539 1539 1539 1539 1539 1539
1522 1523 1526 1527 1527 1529 1531 1532 1534 1535 1536 1537 1539 1541 1541 1542 1544 1544 1545 1545 1545 1545 1545 1545 1545 1544 1544 1543 1543 1542 1542 1542 1542 1542 1541 1541 1541 1541 1541 1540 1540 1540 1540 1540 1540 1540 1540 1540 1541
1523 1525 1527 1529 1530 1531 1532 1534 1535 1534 1535 1537 1539 1541 1542 1543 1544 1545 1546 1546 1546 1546 1546 1546 1545 1545 1545 1544 1544 1544 1543 1543 1543 1543 1543 1543 1542 1542 1542 1542 1542 1542 1542 1542 1542 1542 1542 1542 1542
1526 1528 1529 1530 1532 1532 1533 1534 1535 1536 1538 1539 1540 1541 1542 1543 1544 1545 1546 1547 1547 1547 1547 1546 1546 1546 1546 1545 1545 1545 1545 1545 1545 1545 1544 1544 1544 1544 1544 1544 1544 1544 1543 1543 1544 1543 1544 1544 1544
1527 1529 1531 1532 1533 1534 1534 1535 1536 1538 1539 1540 1541 1542 1543 1544 1545 1546 1547 1547 1548 1548 1548 1547 1547 1547 1547 1546 1546 1546 1546 1546 1546 1545 1546 1546 1545 1546 1545 1545 1544 1545 1545 1545 1545 1545 1545 1545 1545
1529 1530 1531 1532 1533 1534 1534 1536 1537 1539 1540 1541 1541 1542 1543 1545 1546 1546 1547 1548 1548 1548 1548 1548 1548 1548 1548 1548 1547 1547 1547 1547 1547 1547 1547 1547 1547 1547 1546 1546 1546 1546 1546 1546 1547 1546 1546 1546 1546
1530 1530 1531 1532 1533 1534 1534 1535 1536 1538 1540 1541 1541 1542 1544 1545 1546 1547 1547 1548 1548 1549 1549 1549 1549 1549 1549 1549 1549 1548 1548 1549 1548 1548 1548 1548 1548 1548 1548 1547 1547 1547 1547 1548 1548 1548 1548 1547 1548
1528 1529 1531 1531 1532 1533 1535 1536 1536 1538 1539 1540 1541 1542 1544 1545 1546 1546 1547 1548 1548 1549 1549 1550 1549 1550 1550 1549 1549 1550 1550 1550 1549 1549 1549 1549 1549 1549 1549 1548 1548 1548 1549 1549 1549 1549 1549 1549 1549
1527 1529 1530 1531 1531 1532 1533 1534 1536 1538 1538 1539 1540 1541 1543 1544 1545 1546 1546 1547 1548 1549 1549 1550 1550 1550 1550 1550 1550 1550 1551 1550 1550 1550 1550 1550 1550 1550 1550 1549 1550 1550 1550 1550 1550 1550 1550 1550 1550
1528 1527 1529 1530 1530 1531 1532 1533 1534 1537 1537 1538 1539 1540 1541 1542 1544 1545 1546 1547 1548 1548 1549 1550 1550 1550 1551 1551 1551 1551 1551 1551 1551 1551 1551 1551 1551 1551 1551 1551 1551 1551 1551 1551 1551 1551 1551 1551 1552
1524 1526 1528 1528 1529 1531 1531 1531 1531 1534 1536 1536 1537 1539 1540 1541 1543 1544 1545 1546 1547 1548 1549 1550 1550 1551 1551 1551 1552 1552 1552 1552 1552 1552 1551 1551 1551 1551 1551 1552 1552 1552 1552 1552 1553 1553 1553 1553 1553
1525 1527 1527 1528 1529 1529 1529 1529 1529 1532 1533 1535 1536 1537 1538 1540 1542 1543 1544 1545 1547 1548 1549 1550 1550 1551 1551 1551 1552 1552 1552 1552 1552 1552 1552 1552 1552 1552 1552 1553 1553 1553 1553 1553 1554 1554 1554 1554 1554
1525 1525 1526 1528 1529 1528 1529 1528 1527 1529 1532 1534 1535 1536 1537 1539 1540 1542 1544 1545 1546 1547 1548 1549 1550 1550 1551 1551 1551 1552 1552 1553 1553 1553 1553 1553 1553 1553 1553 1554 1554 1554 1554 1555 1554 1555 1555 1556 1556
1525 1523 1525 1527 1528 1529 1528 1533 1525 1525 1529 1531 1533 1534 1535 1537 1539 1541 1542 1544 1545 1546 1548 1549 1549 1550 1550 1551 1551 1552 1553 1553 1554 1554 1554 1554 1554 1554 1554 1554 1555 1555 1555 1555 1556 1556 1556 1556 1556
1523 1523 1524 1525 1526 1527 1526 1529 1525 1523 1525 1527 1530 1532 1533 1535 1537 1539 1541 1543 1544 1545 1547 1548 1549 1549 1550 1550 1551 1552 1553 1553 1554 1554 1554 1555 1555 1555 1555 1555 1555 1556 1556 1556 1556 1556 1556 1556 1557
1523 1525 1525 1524 1524 1532 1526 1529 1528 1522 1523 1524 1527 1529 1531 1533 1536 1538 1540 1542 1543 1544 1545 1546 1548 1548 1549 1550 1551 1552 1552 1553 1554 1554 1555 1555 1555 1555 1555 1556 1556 1556 1556 1556 1556 1556 1556 1556 1556
1522 1525 1530 1532 1532 1530 1524 1528 1526 1521 1523 1524 1525 1527 1529 1531 1534 1536 1538 1540 1541 1543 1544 1545 1547 1548 1549 1549 1550 1551 1552 1553 1553 1554 1555 1555 1555 1556 1556 1556 1556 1556 1556 1556 1556 1556 1556 1556 1556
1519 1520 1529 1536 1533 1527 1525 1527 1522 1522 1524 1525 1526 1527 1528 1530 1532 1534 1536 1538 1540 1541 1543 1544 1546 1547 1548 1549 1550 1551 1551 1552 1553 1553 1554 1555 1555 1555 1555 1556 1556 1556 1556 1556 1556 1556 1556 1556 1556
1518 1518 1516 1520 1523 1527 1523 1522 1520 1521 1523 1524 1525 1526 1528 1529 1531 1533 1535 1537 1539 1540 1542 1543 1545 1546 1547 1548 1549 1550 1551 1551 1552 1553 1554 1554 1555 1555 1555 1556 1556 1556 1556 1556 1556 1556 1556 1556 1556
1515 1515 1519 1522 1530 1531 1527 1524 1521 1520 1521 1522 1524 1525 1527 1529 1530 1532 1534 1535 1537 1539 1540 1542 1543 1545 1546 1547 1547 1548 1549 1550 1551 1552 1553 1553 1554 1554 1555 1555 1555 1555 1555 1555 1555 1555 1555 1555 1555
1518 1518 1516 1517 1519 1526 1529 1525 1514 1517 1519 1521 1523 1524 1526 1527 1529 1531 1532 1534 1536 1537 1539 1540 1542 1543 1544 1545 1546 1547 1548 1549 1550 1551 1551 1552 1553 1554 1554 1555 1555 1555 1555 1555 1554 1555 1555 1555 1555
1513 1512 1514 1521 1521 1519 1522 1525 1515 1517 1519 1521 1522 1524 1525 1526 1528 1529 1531 1532 1534 1535 1537 1538 1539 1541 1542 1543 1544 1545 1546 1547 1548 1549 1550 1551 1552 1553 1553 1554 1554 1554 1554 1554 1554 1554 1554 1554 1554